GFSMA_sfc_temp_231.txt.gz
Temp
70 71 71 71 71 71 72 71 71 70 71 72 71 72 72 73 74 73 72 78 80 80 81 82 83 83 83 83 82 82 82 82 82 82 82 81 81 81 81 81 80 80 80
71 72 71 71 71 71 71 72 71 71 70 72 72 72 72 72 74 75 73 73 80 81 81 82 82 83 83 83 83 82 82 82 81 81 81 80 80 80 80 80 80 80 80
72 71 71 71 71 71 72 73 72 71 70 71 72 72 72 73 75 77 73 73 75 81 82 81 82 82 82 83 83 82 82 81 81 81 80 80 80 80 80 80 79 80 79
73 71 71 71 71 71 71 70 71 70 70 70 69 70 72 73 74 78 74 74 73 76 80 81 81 82 82 83 83 82 82 81 81 80 80 80 80 80 80 79 79 79 79
74 71 71 71 72 70 70 71 70 69 67 68 69 70 71 71 74 77 73 73 73 75 73 78 80 81 82 83 83 83 82 81 81 80 80 80 80 79 79 79 78 78 78
74 71 70 71 71 70 70 70 70 69 69 67 71 72 70 71 72 73 73 76 73 74 74 74 76 79 80 82 83 83 82 82 81 80 80 79 79 79 79 78 78 78 78
76 72 70 71 71 69 70 70 69 68 68 70 66 67 69 70 71 72 73 73 74 74 73 74 75 75 77 80 80 82 82 81 81 81 80 79 78 78 78 78 77 77 77
78 74 72 72 71 71 70 70 69 68 68 70 67 65 64 67 68 70 70 72 73 73 74 75 74 74 75 76 79 80 81 82 82 82 80 79 78 78 77 77 77 77 77
77 77 73 71 72 71 70 70 70 69 67 69 70 67 63 63 64 67 68 68 70 69 71 73 73 73 74 75 77 79 81 80 82 82 82 80 79 78 78 78 78 77 77
76 76 74 73 72 70 70 70 72 69 69 67 68 69 68 68 64 62 65 67 68 69 69 69 72 73 74 73 76 77 79 78 79 81 82 81 79 78 78 78 78 78 78
75 75 74 73 72 71 71 71 72 70 69 68 68 67 68 68 67 64 62 66 67 68 69 69 69 71 73 73 73 74 77 77 78 78 80 81 80 80 80 80 80 79 78
72 73 73 73 73 71 71 71 71 71 71 70 69 68 67 66 67 66 65 65 65 68 69 70 69 70 71 72 76 77 77 77 77 77 77 78 80 80 81 82 81 81 80
70 72 73 72 72 72 72 72 71 71 71 70 70 69 69 68 68 68 65 65 65 66 69 69 69 70 71 72 73 77 77 75 75 74 74 75 77 78 80 80 81 81 81
71 73 73 73 73 73 72 72 71 72 72 71 71 71 69 69 69 69 66 66 65 65 67 69 69 69 70 71 72 75 74 73 73 73 72 73 74 75 76 77 78 78 79
72 73 73 72 73 73 73 72 71 72 72 72 71 71 70 71 69 70 69 67 66 62 63 66 67 70 70 70 72 72 72 72 72 72 71 71 72 73 74 75 75 75 75
72 72 73 72 72 72 73 72 71 72 71 71 71 71 70 70 70 70 68 67 67 64 62 66 68 69 70 71 73 71 72 73 72 70 71 70 71 71 72 73 73 73 73
71 72 72 72 72 72 72 71 71 71 71 71 71 70 70 71 69 69 69 69 68 67 65 67 67 67 68 68 69 70 71 72 73 70 70 69 69 70 70 71 71 71 71
71 72 72 72 72 71 72 71 72 72 71 71 70 70 70 73 70 70 70 69 69 69 67 66 67 67 67 68 67 67 71 75 72 72 70 69 68 68 68 68 68 68 69
71 71 71 71 72 71 71 71 72 71 72 72 71 71 71 70 70 69 70 69 69 69 68 67 67 67 67 67 68 69 69 69 71 72 69 68 67 67 67 66 66 65 65
71 71 71 71 71 70 70 70 72 71 72 71 71 71 71 71 71 70 70 69 69 69 68 67 67 67 67 68 68 67 68 68 69 73 73 70 69 68 67 65 65 65 63
73 72 71 70 69 69 71 71 71 71 72 70 71 72 73 73 73 72 71 70 68 67 67 66 66 66 66 66 66 67 66 67 68 69 69 68 68 68 69 66 68 67 65
72 71 71 71 69 73 69 69 71 72 72 71 71 71 72 73 71 70 69 71 71 69 67 66 66 65 65 66 66 66 65 64 64 68 67 67 68 67 68 68 68 66 64
72 71 71 70 71 71 68 69 69 71 72 71 71 71 73 77 72 72 68 68 68 67 68 67 65 64 64 65 66 64 64 65 67 67 68 67 67 66 68 68 66 65 64
70 71 70 70 71 72 67 66 68 72 71 71 71 71 70 71 71 70 69 68 66 64 64 64 63 63 62 62 61 62 61 61 63 66 67 65 66 66 68 68 67 65 64
69 69 69 69 71 72 64 64 66 71 70 70 71 71 71 71 66 66 67 64 61 61 65 64 64 63 63 64 63 59 58 58 58 60 66 65 65 65 66 67 68 66 63
70 69 68 68 66 69 63 62 64 69 68 69 69 67 65 68 62 62 64 61 59 59 59 60 60 60 62 62 64 61 60 58 58 59 64 64 63 64 63 64 66 66 66

GFSMA_sfc_temp_234.txt.gz
Temp
72 72 72 72 72 73 73 73 73 73 73 74 74 75 75 76 75 75 76 78 79 79 81 82 82 83 83 83 82 82 82 82 81 81 82 82 81 81 81 81 81 80 80
72 71 72 72 72 72 72 72 73 73 72 74 74 74 75 75 76 76 76 77 79 80 81 82 82 82 83 83 83 82 82 82 81 81 80 80 80 80 81 81 81 80 80
72 72 72 72 73 73 72 73 74 73 72 73 74 75 75 76 77 76 76 76 78 80 81 81 82 82 83 83 83 82 82 81 81 81 80 80 80 80 80 80 80 80 79
74 72 72 72 72 72 72 72 72 72 72 72 73 73 74 76 76 77 78 76 76 80 80 81 81 81 82 83 83 83 82 81 81 81 80 80 80 80 80 79 79 79 79
75 73 72 72 72 72 71 72 72 72 71 71 72 73 74 74 77 80 78 77 77 77 78 79 80 80 82 84 83 83 82 81 81 80 80 80 80 79 79 79 79 79 78
75 73 72 73 73 72 71 71 72 72 72 71 72 74 74 74 76 76 77 79 78 77 77 77 78 80 80 82 83 83 83 82 81 81 80 79 79 79 79 78 78 78 78
76 74 72 72 72 72 72 72 72 71 70 72 70 70 71 73 75 76 77 77 78 77 77 76 78 78 79 80 80 81 82 82 82 81 81 79 79 78 78 78 77 78 78
76 74 72 72 73 72 71 71 71 70 70 71 70 68 68 70 71 74 74 75 76 77 78 78 77 76 79 79 80 80 80 81 82 82 81 80 79 78 78 77 77 77 77
75 76 74 73 73 72 71 71 72 71 70 71 72 70 66 67 68 70 72 72 74 74 76 76 76 76 77 79 79 80 80 80 81 82 82 80 80 78 78 77 77 77 77
76 77 76 74 74 73 72 72 74 72 71 70 70 71 70 70 67 65 68 71 72 72 73 73 75 76 76 76 78 78 79 79 80 81 82 81 80 79 78 78 78 77 77
75 76 75 74 74 73 73 72 73 71 71 71 70 70 70 70 69 66 66 70 70 72 73 73 73 74 76 76 77 77 77 77 77 78 79 80 81 81 80 80 79 79 79
74 74 76 74 74 73 73 73 73 73 72 72 71 71 70 69 68 67 65 66 66 71 73 71 73 73 74 75 78 77 76 76 76 76 76 77 79 80 82 81 81 81 80
72 73 74 74 74 74 74 74 73 73 73 72 71 71 72 70 71 70 69 68 68 70 71 72 73 73 74 74 76 76 77 75 75 74 74 75 76 77 79 81 81 81 82
72 74 74 74 75 75 75 74 74 73 73 73 73 72 72 72 72 71 69 67 67 68 69 69 71 71 71 72 75 75 78 73 73 72 72 72 73 74 76 77 78 79 79
74 74 74 74 74 75 75 74 73 74 74 74 73 74 72 73 72 72 70 71 70 67 68 72 72 72 71 73 75 76 76 74 72 72 71 71 72 72 74 74 75 75 76
73 73 74 74 74 73 74 74 74 74 74 72 73 74 73 74 72 71 72 70 72 69 67 71 73 74 74 73 73 73 75 73 72 70 70 69 70 71 72 72 72 73 73
72 72 73 73 73 73 74 73 74 74 74 72 74 73 73 74 72 71 71 70 70 70 68 73 71 73 72 73 74 75 75 75 76 71 70 69 68 69 70 70 71 71 72
72 72 73 73 73 73 74 73 74 75 74 73 74 74 72 74 73 72 72 71 72 72 71 70 72 72 72 74 74 74 76 79 77 73 70 69 68 68 68 68 68 68 68
73 73 73 73 74 74 73 73 74 74 74 74 73 73 74 74 73 73 73 72 72 72 71 70 71 72 73 73 74 74 75 76 76 73 69 68 68 67 66 66 66 65 65
73 72 73 73 74 73 73 73 73 74 74 75 74 74 75 74 74 74 73 72 71 72 71 71 72 71 72 73 72 72 73 75 76 80 76 73 71 69 67 65 65 65 62
73 73 73 73 73 72 72 72 72 73 74 74 74 74 75 74 73 73 75 74 72 72 71 71 70 70 71 71 72 72 71 72 74 74 75 76 75 76 76 68 69 67 64
72 72 72 73 72 73 69 69 71 73 74 74 74 74 75 73 73 70 70 70 72 72 72 70 71 70 71 71 71 70 70 69 69 74 73 74 76 76 75 72 69 66 64
71 70 71 71 70 71 67 67 69 71 73 74 73 74 75 79 73 76 69 68 68 68 70 73 71 70 70 70 69 68 68 67 68 72 71 70 74 74 79 78 66 65 63
70 70 69 69 70 71 65 65 68 72 73 74 73 74 74 76 75 75 74 73 72 72 70 70 69 69 69 68 67 67 66 65 66 67 69 66 72 72 76 78 67 65 63
65 65 66 66 65 66 64 63 65 71 72 73 71 73 73 75 69 66 72 71 70 69 67 64 64 63 63 63 65 65 65 63 65 67 69 68 72 70 72 76 78 66 63
65 66 65 66 64 66 63 61 64 70 69 69 69 71 65 72 62 62 72 70 68 69 67 67 67 66 65 67 64 66 67 62 62 63 69 65 69 70 70 74 74 74 74

GFSMA_sfc_temp_240.txt.gz
Temp
91 81 79 83 90 89 79 83 87 89 90 90 92 90 92 90 89 94 94 80 80 80 81 82 83 83 83 83 83 83 83 82 82 82 82 82 82 82 82 81 81 81 81
91 88 80 83 88 86 82 77 82 85 88 91 90 90 90 92 89 89 94 89 80 80 81 82 83 83 83 83 83 83 83 83 82 82 81 81 81 81 82 81 81 81 81
90 87 84 79 84 85 80 79 83 86 86 92 90 91 91 90 92 91 92 94 88 80 81 81 82 82 83 83 83 83 82 82 82 82 81 81 81 81 81 81 81 81 81
89 88 89 88 86 86 83 84 84 81 81 84 90 91 92 93 92 92 93 94 94 97 83 81 81 81 82 83 83 83 82 82 81 81 81 81 81 81 80 80 80 80 80
90 88 89 88 87 86 88 86 85 85 81 82 85 91 91 92 94 96 93 93 95 94 96 83 81 81 82 84 83 83 83 82 81 81 81 81 80 80 80 80 80 80 79
89 88 91 88 89 85 88 89 86 90 88 82 87 88 91 93 94 94 93 95 97 96 96 94 90 89 81 83 83 83 83 82 81 81 81 81 80 80 80 79 79 79 79
88 88 88 87 90 87 86 87 86 84 86 88 85 86 90 92 93 94 95 95 96 97 97 95 94 96 90 81 81 82 83 83 82 82 81 80 79 79 79 79 79 79 79
89 89 87 90 88 91 85 85 85 81 84 89 79 77 76 84 91 94 93 95 94 97 97 95 94 92 94 95 90 80 81 82 82 82 81 80 80 79 79 78 78 78 78
89 88 88 87 89 89 86 85 85 83 85 87 86 75 71 70 79 90 92 93 92 94 96 96 95 93 91 95 92 87 81 79 81 82 81 81 80 80 79 79 78 77 77
90 91 88 87 85 92 88 86 89 84 84 83 86 84 84 83 75 77 82 83 91 90 92 95 95 94 92 94 91 88 82 80 80 81 81 82 81 80 80 79 79 78 77
89 89 89 86 87 85 89 85 87 86 90 86 84 86 85 88 86 76 75 74 87 79 88 94 94 95 95 94 95 90 81 79 79 79 80 81 81 82 81 81 80 79 78
88 90 90 88 85 86 86 84 86 86 86 88 87 83 84 84 79 80 77 79 82 75 82 83 87 94 90 92 90 82 80 78 77 77 77 78 79 81 82 83 82 81 80
88 90 89 86 86 86 85 85 84 87 87 87 85 87 91 83 81 84 80 80 84 86 86 82 92 92 91 91 91 82 80 77 76 75 75 75 77 78 80 81 81 82 81
87 87 88 89 85 84 88 87 83 88 88 88 85 86 89 89 88 81 80 79 78 79 90 83 90 81 94 82 87 78 86 76 74 73 73 73 74 75 76 77 78 79 80
86 88 87 86 88 88 88 86 85 86 87 87 87 87 87 86 90 84 87 83 86 76 75 86 90 91 94 92 89 90 91 80 74 72 72 71 72 72 73 74 75 75 76
85 87 87 87 87 88 87 85 87 87 86 88 90 86 85 88 88 90 85 82 87 85 83 92 93 92 92 92 89 88 89 77 74 72 71 71 71 71 72 72 72 73 73
86 86 85 86 86 87 87 85 85 86 84 85 87 86 85 85 86 91 84 90 86 85 85 90 94 91 86 86 90 90 90 89 92 73 72 71 70 70 70 71 70 71 71
86 86 86 86 86 86 86 83 84 87 85 84 86 86 85 90 85 86 89 86 88 89 87 81 86 83 83 88 87 87 90 95 94 77 72 70 70 69 68 68 68 68 68
86 87 86 85 84 85 85 86 85 85 86 87 86 85 86 86 84 88 87 87 89 87 85 85 85 90 90 90 86 87 87 89 93 77 71 70 69 69 68 67 66 65 65
84 86 86 84 83 85 84 85 83 83 85 86 86 87 88 87 86 85 79 81 82 81 84 84 87 86 90 91 88 88 87 86 91 97 89 82 79 71 69 67 66 66 63
84 81 84 84 84 83 86 85 84 83 83 84 86 87 89 86 79 80 84 81 81 80 85 83 83 89 89 90 88 91 89 90 91 92 92 93 94 92 88 70 77 68 65
82 83 81 79 78 82 75 70 77 84 84 84 83 84 86 79 79 73 72 72 77 82 82 86 88 87 85 86 89 87 87 85 83 94 86 88 92 91 93 95 80 72 65
84 82 81 79 78 79 67 68 70 84 84 81 81 83 84 91 81 85 72 70 70 70 72 82 80 84 84 84 83 80 81 81 81 88 85 83 89 88 92 92 70 68 64
81 81 81 80 79 79 66 66 68 79 81 83 84 84 83 85 84 83 80 82 85 86 83 87 86 86 86 84 81 81 78 77 81 84 82 78 87 86 90 90 74 68 64
80 79 79 78 78 80 63 61 65 77 77 79 81 81 78 78 75 69 81 79 82 84 69 69 70 67 67 67 71 82 82 81 82 84 84 80 83 85 87 86 89 69 65
80 82 81 80 75 78 65 63 66 75 78 82 80 80 68 75 69 66 77 79 77 81 83 81 79 72 68 74 66 75 82 80 80 78 80 79 82 82 78 88 87 79 80

GFSMA_sfc_temp_246.txt.gz
Temp
79 78 76 80 77 75 76 78 78 78 80 83 80 82 84 84 84 83 81 82 81 81 83 83 83 83 83 83 83 83 83 82 82 82 82 82 82 82 82 81 81 81 81
76 79 76 80 79 76 76 76 78 78 79 83 83 83 83 84 84 83 81 80 81 81 82 83 83 83 83 83 83 83 82 82 82 82 81 81 81 81 81 81 81 81 81
83 79 77 75 76 78 78 78 76 76 78 83 82 83 85 82 83 83 82 83 81 81 81 82 82 82 83 83 83 83 82 82 82 82 81 81 81 81 81 81 81 81 80
85 81 75 75 75 75 75 75 76 75 75 77 80 80 82 84 85 84 83 83 81 81 81 81 81 81 82 83 83 83 82 81 81 81 81 81 81 81 80 80 80 80 80
80 82 82 78 73 74 75 75 76 76 72 74 78 83 81 80 83 88 84 84 83 82 82 81 80 81 82 84 83 83 82 82 81 81 81 81 80 80 80 80 79 79 79
76 81 82 81 78 77 76 77 77 78 76 74 81 81 81 81 82 81 85 87 86 84 86 83 80 80 81 83 83 83 83 82 81 81 81 80 80 80 80 79 79 79 79
76 79 79 82 82 81 78 79 79 79 77 77 74 72 73 80 83 82 81 85 84 87 81 84 81 81 81 81 81 82 82 82 82 81 81 80 79 79 79 79 78 79 79
83 83 81 84 80 82 80 81 79 73 76 79 73 72 67 70 77 81 80 84 84 86 87 86 83 83 84 81 81 81 81 82 82 82 81 80 79 79 79 78 78 78 78
85 84 83 81 81 82 78 80 80 79 75 77 78 75 70 67 70 71 72 75 83 81 85 82 81 83 84 83 82 82 81 80 82 82 82 81 80 79 79 79 78 78 78
77 79 83 81 80 82 79 82 84 80 78 73 77 83 81 78 69 67 69 71 78 78 83 83 86 86 86 85 86 83 82 80 80 81 82 82 80 80 80 79 79 78 78
80 79 82 81 81 82 81 79 79 80 80 78 75 75 76 75 75 70 68 70 77 80 80 82 81 83 86 87 86 84 82 80 79 79 80 81 81 81 80 80 80 79 79
84 85 86 82 83 83 81 79 80 81 80 79 79 80 76 76 73 72 70 72 72 76 81 79 80 79 81 85 88 87 82 79 78 78 78 79 80 81 82 82 82 81 80
79 82 82 82 82 81 82 81 79 78 80 77 78 80 81 79 71 74 73 72 71 74 72 73 79 80 83 83 84 83 80 77 76 76 76 76 78 79 79 80 81 82 82
72 75 84 81 82 82 81 81 82 80 80 79 78 80 81 82 80 75 75 72 70 70 71 70 74 77 81 83 83 78 81 76 75 74 74 74 75 76 76 77 78 79 80
76 78 77 81 83 83 82 81 82 81 79 78 78 78 80 82 82 80 80 76 73 69 69 70 69 76 82 83 82 83 83 77 75 74 74 73 73 73 74 74 75 75 76
76 80 82 83 83 83 83 81 80 82 80 78 80 76 77 82 82 82 81 78 75 71 70 75 71 72 81 85 83 82 83 80 74 74 73 72 72 72 72 73 73 73 73
75 79 82 82 82 81 81 80 79 79 79 78 78 77 78 79 81 81 81 78 75 74 71 76 77 76 79 81 82 82 83 80 80 73 72 72 71 71 71 71 71 71 72
75 80 82 82 80 80 81 81 79 79 79 78 78 77 76 83 78 79 77 78 77 77 74 73 75 75 78 80 80 80 83 89 84 81 72 72 70 70 70 70 69 69 69
78 81 81 80 79 78 78 79 80 79 79 80 79 78 76 77 76 79 78 76 77 77 76 74 74 79 79 79 79 80 80 80 85 80 72 71 70 69 69 68 68 67 66
80 80 79 79 78 79 78 78 80 80 79 78 79 78 79 78 78 79 79 78 76 76 75 73 74 75 75 79 79 75 76 79 80 89 83 79 73 70 69 68 67 67 64
80 80 79 79 77 77 81 77 79 78 78 79 78 79 80 79 79 78 78 78 76 74 74 73 72 72 72 77 76 77 77 77 78 80 78 79 78 75 74 69 72 69 66
78 79 79 79 78 79 75 71 72 76 77 77 76 77 77 77 77 73 74 76 78 74 73 75 75 73 73 71 75 76 75 73 71 78 75 75 78 76 78 78 76 72 67
79 78 78 77 77 77 72 68 69 77 77 76 76 76 76 78 74 78 72 69 70 73 75 75 74 75 75 74 77 75 75 73 72 74 73 70 74 73 76 81 74 71 69
78 78 78 78 77 77 67 65 68 76 77 78 79 78 77 77 76 75 77 76 76 76 75 78 78 77 78 78 79 77 75 74 73 74 73 68 73 73 76 76 74 70 67
77 77 78 78 78 78 64 65 68 77 76 76 77 78 78 77 73 70 71 73 74 73 69 69 68 69 68 71 76 76 72 70 69 72 75 72 73 72 74 77 75 67 64
77 80 78 78 76 76 65 63 67 76 75 76 77 77 71 74 69 65 72 72 70 73 74 69 68 67 68 69 70 74 73 69 69 69 73 71 72 72 69 75 74 70 66